Weather in Fominskoe

Russia / Vologda Oblast     58°58′58″N   39°03′25″E
temp.,
°C
wind,
m/s
gust,
m/s
humid.,
%
clouds,
%
prec.,
mm/h
press.,
hPa
HPBL,
m
19 september, sun
sun1900:00+1ene22835 0.0 102931
03:000ne22815 0.0 102922
06:00−1ene26935 0.0 1029127
09:00+4ene367030 0.0 1029480
12:00+7ene4555100 0.0 10291086
15:00+8ene4554100 0.0 10281185
18:00+6ene3866100 0.0 1027417
21:00+3ene41176100 0.0 1028522
20 september, mon
mon2000:00+1ene41181100 0.0 1029486
03:000ene41183100 0.0 1029538
06:000ene41282100 0.0 1029562
09:00+3e51065100 0.0 10291047
12:00+6e5853100 0.0 10281223
15:00+7e5851100 0.0 10271303
18:00+5e4961100 0.0 1027803
21:00+4ene4117099 0.0 1027658
21 september, tue
tue2100:00+3ene41176100 0.0 1026538
03:00+3ene41179100 0.0 1025473
06:00+2ene4127996 0.0 1025452
09:00+5e5116884 0.0 1024551
12:00+8e5754100 0.0 1023933
15:00+8e4858100 0.0 1022973
18:00+6ene4965100 0.0 1021751
21:00+5ene41071100 0.0 1020608
22 september, wed
wed2200:00+5ene3978100 0.0 1020626
03:00+4ene4982100 0.0 1019796
06:00+4ene41187100 0.2 1018547
09:00+4ene41181100 0.2 1018526
12:00+5ne41075100 0.0 1019557
15:00+8ene3964100 0.0 1017872
18:00+8ene41066100 0.0 1017842
21:00+7e4967100 0.0 1016863
23 september, thu
thu2300:00+6ene3976100 0.0 1015618
03:00+6ene3884100 0.1 1014480
06:00+5ene3795100 1.1 1012379
09:00+5ene2697100 2.4 1011375
12:00+5ese2697100 0.3 1009475
15:00+6ese3695100 0.3 1007548
18:00+6ese3898100 0.8 1006499
21:00+6ese2898100 0.9 1005469